Shannon, Ireland

9:02 AM IST on October 17, 2017 (GMT +0100)
Shannon

Weather History for EINN - November, 2012

Change the Weather History Date:

Tuesday, November 13, 2012

  Actual Average Record
Temperature  
Mean Temperature 53 °F -  
Max Temperature 57 °F 50 °F 60 °F (2011)
Min Temperature 49 °F 39 °F 33 °F (2004)
Degree Days  
Heating Degree Days 12    
Growing Degree Days 3 (Base 50)    
Moisture  
Dew Point 52 °F    
Average Humidity 95    
Maximum Humidity 100    
Minimum Humidity 82    
Precipitation  
Precipitation 0.43 in 0.13 in - ()
Sea Level Pressure  
Sea Level Pressure 29.97 in    
Wind  
Wind Speed 11 mph ()    
Max Wind Speed 22 mph    
Max Gust Speed -    
Visibility 4.5 miles    
Events Rain    
Averages and records for this station are not official NWS values.
T = Trace of Precipitation, MM = Missing Value Source: Averaged Metar Reports

Daily Weather History Graph

Daily Weather History Graph

Search for Another Location

Airport or City:

Trip Planner

Search our weather history database for the weather conditions in past years. The results will help you decide how hot, cold, wet, or windy it might be!

Date:

Astronomy

Nov. 13, 2012 Rise Set
Actual Time 7:55 AM GMT 4:44 PM GMT
Civil Twilight 7:17 AM GMT 5:22 PM GMT
Nautical Twilight 6:35 AM GMT 6:03 PM GMT
Astronomical Twilight 5:55 AM GMT 6:44 PM GMT
Moon 7:17 AM GMT (11/13) 4:23 PM GMT (11/13)
Length of Visible Light 10h 04m
Length of Day
8h 48m
Waning Crescent, 0% of the Moon is Illuminated
Nov 13
Waning Crescent
Nov 13
New
Nov 20
First Quarter
Nov 28
Full
Dec 6
Last Quarter

Hourly Weather History & Observations

Time (GMT) Temp. Dew Point Humidity Pressure Visibility Wind Dir Wind Speed Gust Speed Precip Events Conditions
12:00 AM 54 °F 53 °F 97% 29.95 in 12 mi SSE 8.9 mph - - Rain Light Rain
12:00 AM 53.6 °F 53.6 °F 100% 29.95 in 6.2 mi SSE 9.2 mph - N/A   Mostly Cloudy
12:30 AM 55.4 °F 53.6 °F 94% 29.92 in 6.2 mi SSE 15.0 mph - N/A   Mostly Cloudy
1:00 AM 55.4 °F 53.6 °F 94% 29.92 in 6.2 mi SE 12.7 mph - N/A   Mostly Cloudy
1:30 AM 55.4 °F 53.6 °F 94% 29.92 in 6.2 mi SSE 11.5 mph - N/A   Light Drizzle
2:00 AM 55.4 °F 53.6 °F 94% 29.92 in 6.2 mi South 13.8 mph - N/A Rain Light Rain
2:30 AM 55.4 °F 53.6 °F 94% 29.92 in 6.2 mi South 17.3 mph - N/A   Mostly Cloudy
3:00 AM 57.2 °F 53.6 °F 88% 29.92 in 6.2 mi South 17.3 mph - N/A   Mostly Cloudy
3:30 AM 55.4 °F 53.6 °F 94% 29.92 in 6.2 mi South 17.3 mph - N/A   Mostly Cloudy
4:00 AM 57.2 °F 51.8 °F 82% 29.92 in 6.2 mi South 18.4 mph - N/A   Mostly Cloudy
4:30 AM 55.4 °F 51.8 °F 88% 29.92 in 6.2 mi South 15.0 mph - N/A   Mostly Cloudy
5:00 AM 55.4 °F 51.8 °F 88% 29.92 in 6.2 mi SSE 13.8 mph - N/A   Mostly Cloudy
5:30 AM 55.4 °F 51.8 °F 88% 29.92 in 6.2 mi SSE 12.7 mph - N/A   Mostly Cloudy
6:00 AM 55 °F 51 °F 84% 29.92 in 12 mi SE 15.7 mph - -   Partly Cloudy
6:00 AM 55.4 °F 51.8 °F 88% 29.92 in 6.2 mi SE 15.0 mph - N/A   Mostly Cloudy
6:30 AM 55.4 °F 51.8 °F 88% 29.89 in 6.2 mi SSE 11.5 mph - N/A   Mostly Cloudy
7:00 AM 55.4 °F 51.8 °F 88% 29.89 in 6.2 mi SSE 15.0 mph - N/A   Mostly Cloudy
7:30 AM 55.4 °F 51.8 °F 88% 29.89 in 6.2 mi SSE 16.1 mph - N/A   Mostly Cloudy
8:00 AM 55.4 °F 51.8 °F 88% 29.92 in 6.2 mi SSE 17.3 mph - N/A   Mostly Cloudy
8:30 AM 55.4 °F 51.8 °F 88% 29.92 in 6.2 mi SE 17.3 mph - N/A   Mostly Cloudy
9:00 AM 57.2 °F 51.8 °F 82% 29.92 in 6.2 mi SSE 12.7 mph - N/A   Mostly Cloudy
9:30 AM 57.2 °F 51.8 °F 82% 29.92 in 6.2 mi South 17.3 mph - N/A   Light Drizzle
10:00 AM 57.2 °F 53.6 °F 88% 29.92 in 6.2 mi South 17.3 mph - N/A   Light Drizzle
10:30 AM 57.2 °F 53.6 °F 88% 29.92 in 4.3 mi South 20.7 mph - N/A   Light Drizzle
11:00 AM 55.4 °F 53.6 °F 94% 29.92 in 4.3 mi South 21.9 mph - N/A   Light Drizzle
11:30 AM 55.4 °F 53.6 °F 94% 29.95 in 2.5 mi South 17.3 mph - N/A Rain Light Rain
12:00 PM 56 °F 54 °F 92% 29.96 in 3 mi South 17.9 mph - - Rain Light Rain
12:00 PM 55.4 °F 53.6 °F 94% 29.95 in 3.1 mi South 18.4 mph - N/A Rain Light Rain
12:30 PM 55.4 °F 55.4 °F 100% 29.95 in 4.3 mi South 12.7 mph - N/A Rain Light Rain
1:00 PM 55.4 °F 55.4 °F 100% 29.95 in 1.2 mi SSW 10.4 mph - N/A Rain Light Rain
1:30 PM 53.6 °F 53.6 °F 100% 29.98 in 1.2 mi WSW 9.2 mph - N/A Rain Light Rain
2:00 PM 51.8 °F 51.8 °F 100% 29.98 in 1.2 mi WSW 9.2 mph - N/A Rain Light Rain
2:30 PM 51.8 °F 51.8 °F 100% 29.98 in 1.1 mi WSW 8.1 mph - N/A Rain Light Rain
3:00 PM 51.8 °F 51.8 °F 100% 29.98 in 2.8 mi West 8.1 mph - N/A Rain Light Rain
3:30 PM 50.0 °F 50.0 °F 100% 29.98 in 3.1 mi West 5.8 mph - N/A Rain Light Rain
4:00 PM 50.0 °F 50.0 °F 100% 30.01 in 1.9 mi WSW 4.6 mph - N/A Rain Light Rain
4:30 PM 50.0 °F 50.0 °F 100% 30.01 in 1.6 mi SW 3.5 mph - N/A Rain Light Rain
5:00 PM 50.0 °F 50.0 °F 100% 30.01 in 1.1 mi SSW 5.8 mph - N/A Rain Light Rain
5:30 PM 50.0 °F 50.0 °F 100% 30.01 in 1.2 mi SSW 5.8 mph - N/A Rain Light Rain
6:00 PM 49 °F 49 °F 100% 30.05 in 2 mi SSE 4.5 mph - - Rain Rain
6:00 PM 50.0 °F 50.0 °F 100% 30.04 in 2.2 mi SSE 4.6 mph - N/A Rain Rain
6:30 PM 50.0 °F 50.0 °F 100% 30.04 in 6.2 mi SSE 4.6 mph - N/A   Light Drizzle
7:00 PM 50.0 °F 50.0 °F 100% 30.04 in 6.2 mi ESE 5.8 mph - N/A Rain Light Rain
7:30 PM 50.0 °F 50.0 °F 100% 30.06 in 5.0 mi SE 4.6 mph - N/A   Light Drizzle
8:00 PM 50.0 °F 50.0 °F 100% 30.06 in 5.0 mi ESE 6.9 mph - N/A   Light Drizzle
8:30 PM 50.0 °F 50.0 °F 100% 30.06 in 3.1 mi ESE 8.1 mph - N/A   Mostly Cloudy
9:00 PM 50.0 °F 50.0 °F 100% 30.06 in 3.1 mi ESE 8.1 mph - N/A   Mostly Cloudy
9:30 PM 50.0 °F 50.0 °F 100% 30.06 in 2.5 mi ESE 6.9 mph - N/A   Mostly Cloudy
10:00 PM 50.0 °F 50.0 °F 100% 30.06 in 1.2 mi ESE 5.8 mph - N/A   Mostly Cloudy
10:30 PM 50.0 °F 50.0 °F 100% 30.06 in 0.9 mi ESE 4.6 mph - N/A   Mostly Cloudy
11:00 PM 50.0 °F 50.0 °F 100% 30.06 in 1.2 mi ESE 5.8 mph - N/A   Mostly Cloudy
11:30 PM 50.0 °F 50.0 °F 100% 30.06 in 1.2 mi SE 3.5 mph - N/A   Mostly Cloudy